Time,TemperatureF,DewpointF,PressureIn,WindDirection,WindDirectionDegrees,WindSpeedMPH,WindSpeedGustMPH,Humidity,HourlyPrecipIn,Conditions,Clouds,dailyrainin,SoftwareType,DateUTC
2013-06-11 00:01:00,73.0,72.0,29.86,South,190,8.0,-999.0,94,0.00,,,-99.99,,2013-06-11 00:01:00,
2013-06-11 00:21:00,72.0,72.0,29.84,SSE,160,5.0,-999.0,100,0.00,,,-99.99,,2013-06-11 00:21:00,
2013-06-11 00:31:00,72.0,72.0,29.84,South,180,2.0,-999.0,100,0.00,,,-99.99,,2013-06-11 00:31:00,
2013-06-11 00:41:00,72.0,72.0,29.84,SSE,160,3.0,-999.0,100,0.00,,,-99.99,,2013-06-11 00:41:00,
2013-06-11 00:51:00,73.0,72.0,29.84,South,180,9.0,-999.0,94,0.00,,,-99.99,,2013-06-11 00:51:00,
2013-06-11 01:11:00,72.0,72.0,29.84,South,180,6.0,-999.0,100,0.00,,,-99.99,,2013-06-11 01:11:00,
2013-06-11 01:21:00,72.0,72.0,29.84,SSE,160,2.0,-999.0,100,0.00,,,-99.99,,2013-06-11 01:21:00,
2013-06-11 01:31:00,72.0,72.0,29.84,SSW,200,5.0,-999.0,100,0.05,,,-99.99,,2013-06-11 01:31:00,
2013-06-11 01:41:00,72.0,72.0,29.84,South,190,3.0,-999.0,100,0.05,,,-99.99,,2013-06-11 01:41:00,
2013-06-11 01:52:00,72.0,72.0,29.84,SSW,200,7.0,-999.0,100,0.07,,,-99.99,,2013-06-11 01:52:00,
2013-06-11 02:01:00,72.0,72.0,29.84,SSW,200,7.0,-999.0,100,0.07,,,-99.99,,2013-06-11 02:01:00,
2013-06-11 02:11:00,72.0,72.0,29.84,South,170,14.0,-999.0,100,0.15,,,-99.99,,2013-06-11 02:11:00,
2013-06-11 02:21:00,72.0,72.0,29.84,SSE,150,7.0,-999.0,100,0.15,,,-99.99,,2013-06-11 02:21:00,
2013-06-11 02:31:00,72.0,72.0,29.84,SW,220,6.0,-999.0,100,0.03,,,-99.99,,2013-06-11 02:31:00,
2013-06-11 02:41:00,72.0,72.0,29.84,South,190,6.0,-999.0,100,0.03,,,-99.99,,2013-06-11 02:41:00,
2013-06-11 03:01:00,72.0,72.0,29.84,South,180,6.0,-999.0,100,0.06,,,-99.99,,2013-06-11 03:01:00,
2013-06-11 03:11:00,72.0,70.0,29.83,WSW,240,7.0,16.0,94,0.13,,,-99.99,,2013-06-11 03:11:00,
2013-06-11 03:21:00,72.0,70.0,29.83,SW,220,6.0,16.0,94,0.13,,,-99.99,,2013-06-11 03:21:00,
2013-06-11 03:32:00,72.0,70.0,29.82,SSW,210,3.0,-999.0,94,0.11,,,-99.99,,2013-06-11 03:32:00,
2013-06-11 03:42:00,72.0,70.0,29.82,WSW,240,2.0,-999.0,94,0.11,,,-99.99,,2013-06-11 03:42:00,
2013-06-11 03:53:00,72.0,70.0,29.81,SSW,200,2.0,-999.0,94,0.25,,,-99.99,,2013-06-11 03:53:00,
2013-06-11 04:02:00,72.0,70.0,29.81,SSW,200,2.0,-999.0,94,0.25,,,-99.99,,2013-06-11 04:02:00,
2013-06-11 04:12:00,72.0,70.0,29.81,WSW,250,7.0,-999.0,94,0.28,,,-99.99,,2013-06-11 04:12:00,
2013-06-11 04:22:00,70.0,70.0,29.82,West,260,6.0,-999.0,100,0.28,,,-99.99,,2013-06-11 04:22:00,
2013-06-11 04:33:00,70.0,70.0,29.81,WSW,250,6.0,-999.0,100,0.00,,,-99.99,,2013-06-11 04:33:00,
2013-06-11 04:42:00,70.0,68.0,29.81,West,260,3.0,-999.0,94,0.00,,,-99.99,,2013-06-11 04:42:00,
2013-06-11 04:52:00,70.0,70.0,29.81,WSW,240,7.0,-999.0,100,0.00,,,-99.99,,2013-06-11 04:52:00,
2013-06-11 05:01:00,70.0,70.0,29.81,WSW,240,7.0,-999.0,100,0.00,,,-99.99,,2013-06-11 05:01:00,
2013-06-11 05:11:00,70.0,68.0,29.80,West,260,7.0,-999.0,94,0.00,,,-99.99,,2013-06-11 05:11:00,
2013-06-11 05:21:00,70.0,68.0,29.81,SW,230,5.0,-999.0,94,0.00,,,-99.99,,2013-06-11 05:21:00,
2013-06-11 05:31:00,70.0,68.0,29.81,West,270,5.0,-999.0,94,0.00,,,-99.99,,2013-06-11 05:31:00,
2013-06-11 05:41:00,70.0,68.0,29.81,West,280,3.0,-999.0,94,0.00,,,-99.99,,2013-06-11 05:41:00,
2013-06-11 05:52:00,70.0,68.0,29.81,SW,230,7.0,-999.0,94,0.00,,,-99.99,,2013-06-11 05:52:00,
2013-06-11 06:02:00,70.0,68.0,29.81,SW,230,7.0,-999.0,94,0.00,,,-99.99,,2013-06-11 06:02:00,
2013-06-11 06:11:00,68.0,68.0,29.81,WSW,240,7.0,-999.0,100,0.00,,,-99.99,,2013-06-11 06:11:00,
2013-06-11 06:21:00,68.0,66.0,29.81,WSW,240,7.0,-999.0,93,0.00,,,-99.99,,2013-06-11 06:21:00,
2013-06-11 06:31:00,68.0,66.0,29.81,SW,220,3.0,-999.0,93,0.00,,,-99.99,,2013-06-11 06:31:00,
2013-06-11 06:41:00,68.0,66.0,29.81,SW,230,10.0,-999.0,93,0.00,,,-99.99,,2013-06-11 06:41:00,
2013-06-11 06:51:00,66.0,66.0,29.80,West,280,5.0,-999.0,100,0.00,,,-99.99,,2013-06-11 06:51:00,
2013-06-11 07:01:00,66.0,66.0,29.80,West,280,5.0,-999.0,100,0.00,,,-99.99,,2013-06-11 07:01:00,
2013-06-11 07:11:00,66.0,66.0,29.81,West,260,5.0,-999.0,100,0.00,,,-99.99,,2013-06-11 07:11:00,
2013-06-11 07:21:00,66.0,66.0,29.81,WSW,240,2.0,-999.0,100,0.00,,,-99.99,,2013-06-11 07:21:00,
2013-06-11 07:31:00,66.0,66.0,29.81,WNW,290,5.0,-999.0,100,0.00,,,-99.99,,2013-06-11 07:31:00,
2013-06-11 07:41:00,66.0,66.0,29.81,WSW,250,3.0,-999.0,100,0.00,,,-99.99,,2013-06-11 07:41:00,
2013-06-11 07:52:00,66.0,66.0,29.80,West,280,2.0,-999.0,100,0.00,,,-99.99,,2013-06-11 07:52:00,
2013-06-11 08:02:00,66.0,66.0,29.80,West,280,2.0,-999.0,100,0.00,,,-99.99,,2013-06-11 08:02:00,
2013-06-11 08:11:00,66.0,66.0,29.80,West,260,3.0,-999.0,100,0.00,,,-99.99,,2013-06-11 08:11:00,
2013-06-11 08:21:00,66.0,66.0,29.80,West,260,7.0,-999.0,100,0.00,,,-99.99,,2013-06-11 08:21:00,
2013-06-11 08:31:00,66.0,66.0,29.80,West,260,5.0,-999.0,100,0.00,,,-99.99,,2013-06-11 08:31:00,
2013-06-11 08:41:00,66.0,66.0,29.80,WSW,250,3.0,-999.0,100,0.00,,,-99.99,,2013-06-11 08:41:00,
2013-06-11 08:51:00,66.0,66.0,29.81,WSW,240,5.0,-999.0,100,0.00,,,-99.99,,2013-06-11 08:51:00,
2013-06-11 09:01:00,66.0,66.0,29.81,WSW,240,5.0,-999.0,100,0.00,,,-99.99,,2013-06-11 09:01:00,
2013-06-11 09:11:00,66.0,66.0,29.80,West,260,3.0,-999.0,100,0.00,,,-99.99,,2013-06-11 09:11:00,
2013-06-11 09:22:00,66.0,66.0,29.81,West,260,5.0,-999.0,100,-99.99,,,-99.99,,2013-06-11 09:22:00,
2013-06-11 09:33:00,66.0,66.0,29.81,West,280,3.0,-999.0,100,-99.99,,,-99.99,,2013-06-11 09:33:00,
2013-06-11 09:43:00,66.0,66.0,29.81,WNW,290,3.0,-999.0,100,-99.99,,,-99.99,,2013-06-11 09:43:00,
2013-06-11 09:53:00,66.0,64.0,29.81,West,270,5.0,-999.0,93,-99.99,,,-99.99,,2013-06-11 09:53:00,
2013-06-11 10:03:00,66.0,64.0,29.81,West,270,5.0,-999.0,93,-99.99,,,-99.99,,2013-06-11 10:03:00,
2013-06-11 10:12:00,66.0,64.0,29.81,West,260,3.0,-999.0,93,-99.99,,,-99.99,,2013-06-11 10:12:00,
2013-06-11 10:23:00,66.0,64.0,29.81,West,260,3.0,-999.0,93,-99.99,,,-99.99,,2013-06-11 10:23:00,
2013-06-11 10:33:00,66.0,66.0,29.81,West,280,3.0,-999.0,100,-99.99,,,-99.99,,2013-06-11 10:33:00,
2013-06-11 10:42:00,66.0,66.0,29.81,SW,230,5.0,-999.0,100,-99.99,,,-99.99,,2013-06-11 10:42:00,
2013-06-11 10:52:00,66.0,66.0,29.81,WNW,290,7.0,-999.0,100,-99.99,,,-99.99,,2013-06-11 10:52:00,
2013-06-11 11:02:00,66.0,66.0,29.81,WNW,290,7.0,-999.0,100,-99.99,,,-99.99,,2013-06-11 11:02:00,
2013-06-11 11:12:00,66.0,66.0,29.82,West,280,5.0,-999.0,100,-99.99,,,-99.99,,2013-06-11 11:12:00,
2013-06-11 11:22:00,66.0,66.0,29.82,West,260,3.0,-999.0,100,-99.99,,,-99.99,,2013-06-11 11:22:00,
2013-06-11 11:32:00,68.0,66.0,29.82,West,280,2.0,-999.0,93,-99.99,,,-99.99,,2013-06-11 11:32:00,
2013-06-11 11:42:00,68.0,66.0,29.82,WSW,250,5.0,-999.0,93,-99.99,,,-99.99,,2013-06-11 11:42:00,
2013-06-11 11:52:00,70.0,66.0,29.82,WSW,250,8.0,-999.0,88,-99.99,,,-99.99,,2013-06-11 11:52:00,
2013-06-11 12:02:00,70.0,66.0,29.82,WSW,250,8.0,-999.0,88,-99.99,,,-99.99,,2013-06-11 12:02:00,
2013-06-11 12:12:00,70.0,66.0,29.82,West,270,8.0,-999.0,88,-99.99,,,-99.99,,2013-06-11 12:12:00,
2013-06-11 12:22:00,70.0,66.0,29.83,West,270,10.0,-999.0,88,-99.99,,,-99.99,,2013-06-11 12:22:00,
2013-06-11 12:32:00,72.0,66.0,29.83,West,280,7.0,-999.0,83,-99.99,,,-99.99,,2013-06-11 12:32:00,
2013-06-11 12:42:00,72.0,66.0,29.83,West,280,7.0,-999.0,83,-99.99,,,-99.99,,2013-06-11 12:42:00,
2013-06-11 12:52:00,72.0,66.0,29.82,WNW,290,7.0,-999.0,83,-99.99,,,-99.99,,2013-06-11 12:52:00,
2013-06-11 13:02:00,72.0,66.0,29.82,WNW,290,7.0,-999.0,83,-99.99,,,-99.99,,2013-06-11 13:02:00,
2013-06-11 13:12:00,72.0,64.0,29.82,WNW,290,13.0,16.0,78,-99.99,,,-99.99,,2013-06-11 13:12:00,
2013-06-11 13:22:00,73.0,64.0,29.82,WNW,300,9.0,-999.0,73,-99.99,,,-99.99,,2013-06-11 13:22:00,
2013-06-11 13:32:00,73.0,64.0,29.81,WNW,290,9.0,-999.0,73,-99.99,,,-99.99,,2013-06-11 13:32:00,
2013-06-11 13:42:00,73.0,64.0,29.81,WNW,290,12.0,-999.0,73,-99.99,,,-99.99,,2013-06-11 13:42:00,
2013-06-11 13:52:00,73.0,64.0,29.81,West,280,8.0,17.0,73,-99.99,,,-99.99,,2013-06-11 13:52:00,
2013-06-11 14:02:00,73.0,64.0,29.81,West,280,8.0,17.0,73,-99.99,,,-99.99,,2013-06-11 14:02:00,
2013-06-11 14:12:00,75.0,64.0,29.81,WNW,290,13.0,17.0,69,-99.99,,,-99.99,,2013-06-11 14:12:00,
2013-06-11 14:22:00,75.0,64.0,29.81,WNW,290,13.0,-999.0,69,-99.99,,,-99.99,,2013-06-11 14:22:00,
2013-06-11 14:32:00,73.0,63.0,29.80,WNW,300,14.0,20.0,68,-99.99,,,-99.99,,2013-06-11 14:32:00,
2013-06-11 14:42:00,75.0,64.0,29.81,NW,320,17.0,18.0,69,-99.99,,,-99.99,,2013-06-11 14:42:00,
2013-06-11 14:52:00,75.0,64.0,29.81,WNW,290,13.0,20.0,69,-99.99,,,-99.99,,2013-06-11 14:52:00,
2013-06-11 15:02:00,75.0,64.0,29.81,WNW,290,13.0,20.0,69,-99.99,,,-99.99,,2013-06-11 15:02:00,
2013-06-11 15:12:00,75.0,64.0,29.80,WNW,290,8.0,18.0,69,-99.99,,,-99.99,,2013-06-11 15:12:00,
2013-06-11 15:22:00,75.0,64.0,29.81,WNW,290,14.0,16.0,69,-99.99,,,-99.99,,2013-06-11 15:22:00,
2013-06-11 15:33:00,75.0,64.0,29.81,West,280,8.0,17.0,69,-99.99,,,-99.99,,2013-06-11 15:33:00,
2013-06-11 15:42:00,75.0,64.0,29.81,WNW,300,10.0,16.0,69,-99.99,,,-99.99,,2013-06-11 15:42:00,
2013-06-11 15:53:00,75.0,63.0,29.80,WNW,300,14.0,21.0,64,-99.99,,,-99.99,,2013-06-11 15:53:00,
2013-06-11 16:03:00,75.0,63.0,29.80,WNW,300,14.0,21.0,64,-99.99,,,-99.99,,2013-06-11 16:03:00,
2013-06-11 16:12:00,75.0,64.0,29.80,West,280,15.0,17.0,69,-99.99,,,-99.99,,2013-06-11 16:12:00,
2013-06-11 16:22:00,79.0,64.0,29.80,WNW,290,10.0,17.0,61,-99.99,,,-99.99,,2013-06-11 16:22:00,
2013-06-11 16:33:00,79.0,64.0,29.79,West,260,12.0,-999.0,61,-99.99,,,-99.99,,2013-06-11 16:33:00,
2013-06-11 16:42:00,77.0,64.0,29.79,West,260,10.0,16.0,65,-99.99,,,-99.99,,2013-06-11 16:42:00,
2013-06-11 16:52:00,77.0,64.0,29.79,WNW,290,7.0,17.0,65,-99.99,,,-99.99,,2013-06-11 16:52:00,
2013-06-11 17:02:00,77.0,64.0,29.79,WNW,290,7.0,17.0,65,-99.99,,,-99.99,,2013-06-11 17:02:00,
2013-06-11 17:12:00,75.0,64.0,29.79,West,280,9.0,16.0,69,-99.99,,,-99.99,,2013-06-11 17:12:00,
2013-06-11 17:22:00,79.0,64.0,29.78,West,270,7.0,-999.0,61,-99.99,,,-99.99,,2013-06-11 17:22:00,
2013-06-11 17:32:00,79.0,64.0,29.78,WNW,290,12.0,17.0,61,-99.99,,,-99.99,,2013-06-11 17:32:00,
2013-06-11 17:43:00,79.0,64.0,29.78,WNW,290,12.0,20.0,61,-99.99,,,-99.99,,2013-06-11 17:43:00,
2013-06-11 17:52:00,77.0,63.0,29.78,WNW,300,17.0,23.0,61,0.00,,,-99.99,,2013-06-11 17:52:00,
2013-06-11 18:01:00,77.0,63.0,29.78,WNW,300,17.0,23.0,61,0.00,,,-99.99,,2013-06-11 18:01:00,
2013-06-11 18:11:00,79.0,64.0,29.78,WNW,300,15.0,23.0,61,0.00,,,-99.99,,2013-06-11 18:11:00,
2013-06-11 18:21:00,79.0,64.0,29.78,West,270,8.0,22.0,61,0.00,,,-99.99,,2013-06-11 18:21:00,
2013-06-11 18:31:00,79.0,64.0,29.78,WNW,290,12.0,20.0,61,0.00,,,-99.99,,2013-06-11 18:31:00,
2013-06-11 18:41:00,75.0,64.0,29.78,West,280,10.0,21.0,69,0.00,,,-99.99,,2013-06-11 18:41:00,
2013-06-11 18:51:00,79.0,64.0,29.78,WNW,290,15.0,23.0,61,0.00,,,-99.99,,2013-06-11 18:51:00,
2013-06-11 19:01:00,79.0,64.0,29.78,WNW,290,15.0,23.0,61,0.00,,,-99.99,,2013-06-11 19:01:00,
2013-06-11 19:11:00,79.0,64.0,29.77,WNW,300,8.0,21.0,61,0.00,,,-99.99,,2013-06-11 19:11:00,
2013-06-11 19:21:00,79.0,64.0,29.77,WNW,300,12.0,17.0,61,0.00,,,-99.99,,2013-06-11 19:21:00,
2013-06-11 19:32:00,77.0,64.0,29.77,West,270,8.0,18.0,65,0.00,,,-99.99,,2013-06-11 19:32:00,
2013-06-11 19:41:00,75.0,64.0,29.77,NW,310,10.0,20.0,69,0.00,,,-99.99,,2013-06-11 19:41:00,
2013-06-11 19:52:00,79.0,66.0,29.76,WNW,290,8.0,17.0,65,0.00,,,-99.99,,2013-06-11 19:52:00,
2013-06-11 20:01:00,79.0,66.0,29.76,WNW,290,8.0,17.0,65,0.00,,,-99.99,,2013-06-11 20:01:00,
2013-06-11 20:11:00,77.0,64.0,29.76,WNW,300,9.0,17.0,65,0.00,,,-99.99,,2013-06-11 20:11:00,
2013-06-11 20:21:00,79.0,66.0,29.77,NW,310,16.0,20.0,65,0.00,,,-99.99,,2013-06-11 20:21:00,
2013-06-11 20:31:00,79.0,66.0,29.77,WNW,290,10.0,18.0,65,0.00,,,-99.99,,2013-06-11 20:31:00,
2013-06-11 20:41:00,79.0,66.0,29.77,West,280,10.0,18.0,65,0.00,,,-99.99,,2013-06-11 20:41:00,
2013-06-11 20:52:00,79.0,66.0,29.76,West,270,10.0,17.0,65,0.00,,,-99.99,,2013-06-11 20:52:00,
2013-06-11 21:01:00,79.0,66.0,29.76,West,270,10.0,17.0,65,0.00,,,-99.99,,2013-06-11 21:01:00,
2013-06-11 21:21:00,77.0,66.0,29.76,WNW,290,13.0,18.0,69,0.00,,,-99.99,,2013-06-11 21:21:00,
2013-06-11 21:32:00,75.0,64.0,29.76,WNW,300,13.0,18.0,69,0.00,,,-99.99,,2013-06-11 21:32:00,
2013-06-11 21:42:00,79.0,64.0,29.76,West,260,8.0,20.0,61,0.00,,,-99.99,,2013-06-11 21:42:00,
2013-06-11 21:52:00,79.0,64.0,29.76,WNW,300,18.0,21.0,61,0.00,,,-99.99,,2013-06-11 21:52:00,
2013-06-11 22:03:00,79.0,64.0,29.76,WNW,300,18.0,21.0,61,0.00,,,-99.99,,2013-06-11 22:03:00,
2013-06-11 22:12:00,77.0,64.0,29.76,WNW,300,14.0,18.0,65,0.00,,,-99.99,,2013-06-11 22:12:00,
2013-06-11 22:22:00,79.0,64.0,29.76,WNW,300,13.0,18.0,61,0.00,,,-99.99,,2013-06-11 22:22:00,
2013-06-11 22:32:00,75.0,63.0,29.76,WNW,300,15.0,20.0,64,0.00,,,-99.99,,2013-06-11 22:32:00,
2013-06-11 22:42:00,75.0,63.0,29.76,NW,310,13.0,20.0,64,0.00,,,-99.99,,2013-06-11 22:42:00,
2013-06-11 22:52:00,75.0,63.0,29.76,NW,310,16.0,20.0,64,0.00,,,-99.99,,2013-06-11 22:52:00,
2013-06-11 23:02:00,75.0,63.0,29.76,NW,310,16.0,20.0,64,0.00,,,-99.99,,2013-06-11 23:02:00,
2013-06-11 23:21:00,75.0,64.0,29.77,WNW,300,14.0,18.0,69,0.00,,,-99.99,,2013-06-11 23:21:00,
2013-06-11 23:31:00,75.0,63.0,29.78,WNW,300,15.0,25.0,64,0.00,,,-99.99,,2013-06-11 23:31:00,
2013-06-11 23:42:00,75.0,63.0,29.78,West,280,15.0,22.0,64,0.00,,,-99.99,,2013-06-11 23:42:00,
2013-06-11 23:52:00,75.0,63.0,29.78,WNW,300,12.0,22.0,64,0.00,,,-99.99,,2013-06-11 23:52:00,